owner,sensor,date,latitude,longitude,air_temperature,qcFlag 
COMPS,ioos:station:USF.COMPS:SHP:1,2014-04-01T00:00:00Z,30.0600,-84.2910,17.9,1111122 
COMPS,ioos:station:USF.COMPS:SHP:1,2014-04-01T00:06:00Z,30.0600,-84.2910,17.77,1111122 
COMPS,ioos:station:USF.COMPS:SHP:1,2014-04-01T00:12:00Z,30.0600,-84.2910,17.78,1111122 
COMPS,ioos:station:USF.COMPS:SHP:1,2014-04-01T00:18:00Z,30.0600,-84.2910,17.62,1111122 
COMPS,ioos:station:USF.COMPS:SHP:1,2014-04-01T00:24:00Z,30.0600,-84.2910,17.56,1111122 
COMPS,ioos:station:USF.COMPS:SHP:1,2014-04-01T00:30:00Z,30.0600,-84.2910,17.48,1111122 
COMPS,ioos:station:USF.COMPS:SHP:1,2014-04-01T00:36:00Z,30.0600,-84.2910,17.55,1111122 
COMPS,ioos:station:USF.COMPS:SHP:1,2014-04-01T00:42:00Z,30.0600,-84.2910,17.5,1111122 
COMPS,ioos:station:USF.COMPS:SHP:1,2014-04-01T00:48:00Z,30.0600,-84.2910,17.37,1111122 
COMPS,ioos:station:USF.COMPS:SHP:1,2014-04-01T00:54:00Z,30.0600,-84.2910,17.32,1111122 
COMPS,ioos:station:USF.COMPS:SHP:1,2014-04-01T01:00:00Z,30.0600,-84.2910,17.26,1111122 
COMPS,ioos:station:USF.COMPS:SHP:1,2014-04-01T01:06:00Z,30.0600,-84.2910,17.13,1111122 
COMPS,ioos:station:USF.COMPS:SHP:1,2014-04-01T01:12:00Z,30.0600,-84.2910,16.89,1111122 
COMPS,ioos:station:USF.COMPS:SHP:1,2014-04-01T01:18:00Z,30.0600,-84.2910,16.78,1111122 
COMPS,ioos:station:USF.COMPS:SHP:1,2014-04-01T01:24:00Z,30.0600,-84.2910,16.82,1111122 
COMPS,ioos:station:USF.COMPS:SHP:1,2014-04-01T01:30:00Z,30.0600,-84.2910,16.82,1111122 
COMPS,ioos:station:USF.COMPS:SHP:1,2014-04-01T01:36:00Z,30.0600,-84.2910,16.55,1111122 
COMPS,ioos:station:USF.COMPS:SHP:1,2014-04-01T01:42:00Z,30.0600,-84.2910,16.69,1111122 
COMPS,ioos:station:USF.COMPS:SHP:1,2014-04-01T01:48:00Z,30.0600,-84.2910,16.67,1111122 
COMPS,ioos:station:USF.COMPS:SHP:1,2014-04-01T01:54:00Z,30.0600,-84.2910,16.74,1111122 
COMPS,ioos:station:USF.COMPS:SHP:1,2014-04-01T02:00:00Z,30.0600,-84.2910,16.52,1111122 
COMPS,ioos:station:USF.COMPS:SHP:1,2014-04-01T02:06:00Z,30.0600,-84.2910,16.5,1111122 
COMPS,ioos:station:USF.COMPS:SHP:1,2014-04-01T02:12:00Z,30.0600,-84.2910,16.39,1111122 
COMPS,ioos:station:USF.COMPS:SHP:1,2014-04-01T02:18:00Z,30.0600,-84.2910,16.52,1111122 
COMPS,ioos:station:USF.COMPS:SHP:1,2014-04-01T02:24:00Z,30.0600,-84.2910,16.39,1111122 
COMPS,ioos:station:USF.COMPS:SHP:1,2014-04-01T02:30:00Z,30.0600,-84.2910,16.3,1111122 
COMPS,ioos:station:USF.COMPS:SHP:1,2014-04-01T02:36:00Z,30.0600,-84.2910,16.23,1111122 
COMPS,ioos:station:USF.COMPS:SHP:1,2014-04-01T02:42:00Z,30.0600,-84.2910,16.26,1111122 
COMPS,ioos:station:USF.COMPS:SHP:1,2014-04-01T02:48:00Z,30.0600,-84.2910,16.15,1111122 
COMPS,ioos:station:USF.COMPS:SHP:1,2014-04-01T02:54:00Z,30.0600,-84.2910,16.12,1111122 
COMPS,ioos:station:USF.COMPS:SHP:1,2014-04-01T03:00:00Z,30.0600,-84.2910,16.12,1111122 
COMPS,ioos:station:USF.COMPS:SHP:1,2014-04-01T03:06:00Z,30.0600,-84.2910,16.12,1111122 
COMPS,ioos:station:USF.COMPS:SHP:1,2014-04-01T03:12:00Z,30.0600,-84.2910,16.04,1111122 
COMPS,ioos:station:USF.COMPS:SHP:1,2014-04-01T03:18:00Z,30.0600,-84.2910,15.93,1111122 
COMPS,ioos:station:USF.COMPS:SHP:1,2014-04-01T03:24:00Z,30.0600,-84.2910,15.83,1111122 
COMPS,ioos:station:USF.COMPS:SHP:1,2014-04-01T03:30:00Z,30.0600,-84.2910,15.79,1111122 
COMPS,ioos:station:USF.COMPS:SHP:1,2014-04-01T03:36:00Z,30.0600,-84.2910,15.62,1111122 
COMPS,ioos:station:USF.COMPS:SHP:1,2014-04-01T03:42:00Z,30.0600,-84.2910,15.42,1111122 
COMPS,ioos:station:USF.COMPS:SHP:1,2014-04-01T03:48:00Z,30.0600,-84.2910,15.35,1111122 
COMPS,ioos:station:USF.COMPS:SHP:1,2014-04-01T03:54:00Z,30.0600,-84.2910,15.5,1111122 
COMPS,ioos:station:USF.COMPS:SHP:1,2014-04-01T04:00:00Z,30.0600,-84.2910,15.58,1111122 
COMPS,ioos:station:USF.COMPS:SHP:1,2014-04-01T04:06:00Z,30.0600,-84.2910,15.51,1111122 
COMPS,ioos:station:USF.COMPS:SHP:1,2014-04-01T04:12:00Z,30.0600,-84.2910,15.13,1111122 
COMPS,ioos:station:USF.COMPS:SHP:1,2014-04-01T04:18:00Z,30.0600,-84.2910,14.81,1111122 
COMPS,ioos:station:USF.COMPS:SHP:1,2014-04-01T04:24:00Z,30.0600,-84.2910,14.6,1111122 
COMPS,ioos:station:USF.COMPS:SHP:1,2014-04-01T04:30:00Z,30.0600,-84.2910,14.41,1111122 
COMPS,ioos:station:USF.COMPS:SHP:1,2014-04-01T04:36:00Z,30.0600,-84.2910,14.58,1111122 
COMPS,ioos:station:USF.COMPS:SHP:1,2014-04-01T04:42:00Z,30.0600,-84.2910,14.84,1111122 
COMPS,ioos:station:USF.COMPS:SHP:1,2014-04-01T04:48:00Z,30.0600,-84.2910,14.98,1111122 
COMPS,ioos:station:USF.COMPS:SHP:1,2014-04-01T04:54:00Z,30.0600,-84.2910,14.69,1111122 
COMPS,ioos:station:USF.COMPS:SHP:1,2014-04-01T05:00:00Z,30.0600,-84.2910,14.64,1111122 
COMPS,ioos:station:USF.COMPS:SHP:1,2014-04-01T05:06:00Z,30.0600,-84.2910,14.65,1111122 
COMPS,ioos:station:USF.COMPS:SHP:1,2014-04-01T05:12:00Z,30.0600,-84.2910,14.76,1111122 
COMPS,ioos:station:USF.COMPS:SHP:1,2014-04-01T05:18:00Z,30.0600,-84.2910,14.66,1111122 
COMPS,ioos:station:USF.COMPS:SHP:1,2014-04-01T05:24:00Z,30.0600,-84.2910,14.84,1111122 
COMPS,ioos:station:USF.COMPS:SHP:1,2014-04-01T05:30:00Z,30.0600,-84.2910,14.95,1111122 
COMPS,ioos:station:USF.COMPS:SHP:1,2014-04-01T05:36:00Z,30.0600,-84.2910,15.0,1111122 
COMPS,ioos:station:USF.COMPS:SHP:1,2014-04-01T05:42:00Z,30.0600,-84.2910,14.84,1111122 
COMPS,ioos:station:USF.COMPS:SHP:1,2014-04-01T05:48:00Z,30.0600,-84.2910,14.51,1111122 
COMPS,ioos:station:USF.COMPS:SHP:1,2014-04-01T05:54:00Z,30.0600,-84.2910,14.42,1111122 
COMPS,ioos:station:USF.COMPS:SHP:1,2014-04-01T06:00:00Z,30.0600,-84.2910,14.39,1111122 
COMPS,ioos:station:USF.COMPS:SHP:1,2014-04-01T06:06:00Z,30.0600,-84.2910,14.19,1111122 
COMPS,ioos:station:USF.COMPS:SHP:1,2014-04-01T06:12:00Z,30.0600,-84.2910,13.98,1111122 
COMPS,ioos:station:USF.COMPS:SHP:1,2014-04-01T06:18:00Z,30.0600,-84.2910,13.34,1111122 
COMPS,ioos:station:USF.COMPS:SHP:1,2014-04-01T06:24:00Z,30.0600,-84.2910,13.34,1111122 
COMPS,ioos:station:USF.COMPS:SHP:1,2014-04-01T06:30:00Z,30.0600,-84.2910,13.08,1111122 
COMPS,ioos:station:USF.COMPS:SHP:1,2014-04-01T06:36:00Z,30.0600,-84.2910,12.95,1111122 
COMPS,ioos:station:USF.COMPS:SHP:1,2014-04-01T06:42:00Z,30.0600,-84.2910,12.92,1111122 
COMPS,ioos:station:USF.COMPS:SHP:1,2014-04-01T06:48:00Z,30.0600,-84.2910,12.99,1111122 
COMPS,ioos:station:USF.COMPS:SHP:1,2014-04-01T06:54:00Z,30.0600,-84.2910,13.38,1111122 
COMPS,ioos:station:USF.COMPS:SHP:1,2014-04-01T07:00:00Z,30.0600,-84.2910,13.31,1111122 
COMPS,ioos:station:USF.COMPS:SHP:1,2014-04-01T07:06:00Z,30.0600,-84.2910,12.86,1111122 
COMPS,ioos:station:USF.COMPS:SHP:1,2014-04-01T07:12:00Z,30.0600,-84.2910,12.48,1111122 
COMPS,ioos:station:USF.COMPS:SHP:1,2014-04-01T07:18:00Z,30.0600,-84.2910,12.18,1111122 
COMPS,ioos:station:USF.COMPS:SHP:1,2014-04-01T07:24:00Z,30.0600,-84.2910,11.69,1111122 
COMPS,ioos:station:USF.COMPS:SHP:1,2014-04-01T07:30:00Z,30.0600,-84.2910,11.44,1111122 
COMPS,ioos:station:USF.COMPS:SHP:1,2014-04-01T07:36:00Z,30.0600,-84.2910,11.5,1111122 
COMPS,ioos:station:USF.COMPS:SHP:1,2014-04-01T07:42:00Z,30.0600,-84.2910,11.77,1111122 
COMPS,ioos:station:USF.COMPS:SHP:1,2014-04-01T07:48:00Z,30.0600,-84.2910,11.73,1111122 
COMPS,ioos:station:USF.COMPS:SHP:1,2014-04-01T07:54:00Z,30.0600,-84.2910,12.09,1111122 
COMPS,ioos:station:USF.COMPS:SHP:1,2014-04-01T08:00:00Z,30.0600,-84.2910,12.12,1111122 
COMPS,ioos:station:USF.COMPS:SHP:1,2014-04-01T08:06:00Z,30.0600,-84.2910,11.89,1111122 
COMPS,ioos:station:USF.COMPS:SHP:1,2014-04-01T08:12:00Z,30.0600,-84.2910,11.71,1111122 
COMPS,ioos:station:USF.COMPS:SHP:1,2014-04-01T08:18:00Z,30.0600,-84.2910,11.64,1111122 
COMPS,ioos:station:USF.COMPS:SHP:1,2014-04-01T08:24:00Z,30.0600,-84.2910,11.57,1111122 
COMPS,ioos:station:USF.COMPS:SHP:1,2014-04-01T08:30:00Z,30.0600,-84.2910,11.74,1111122 
COMPS,ioos:station:USF.COMPS:SHP:1,2014-04-01T08:36:00Z,30.0600,-84.2910,11.8,1111122 
COMPS,ioos:station:USF.COMPS:SHP:1,2014-04-01T08:42:00Z,30.0600,-84.2910,11.87,1111122 
COMPS,ioos:station:USF.COMPS:SHP:1,2014-04-01T08:48:00Z,30.0600,-84.2910,11.7,1111122 
COMPS,ioos:station:USF.COMPS:SHP:1,2014-04-01T08:54:00Z,30.0600,-84.2910,11.77,1111122 
COMPS,ioos:station:USF.COMPS:SHP:1,2014-04-01T09:00:00Z,30.0600,-84.2910,12.05,1111122 
COMPS,ioos:station:USF.COMPS:SHP:1,2014-04-01T09:06:00Z,30.0600,-84.2910,11.95,1111122 
COMPS,ioos:station:USF.COMPS:SHP:1,2014-04-01T09:12:00Z,30.0600,-84.2910,11.97,1111122 
COMPS,ioos:station:USF.COMPS:SHP:1,2014-04-01T09:18:00Z,30.0600,-84.2910,12.1,1111122 
COMPS,ioos:station:USF.COMPS:SHP:1,2014-04-01T09:24:00Z,30.0600,-84.2910,12.05,1111122 
COMPS,ioos:station:USF.COMPS:SHP:1,2014-04-01T09:30:00Z,30.0600,-84.2910,11.83,1111122 
COMPS,ioos:station:USF.COMPS:SHP:1,2014-04-01T09:36:00Z,30.0600,-84.2910,11.81,1111122 
COMPS,ioos:station:USF.COMPS:SHP:1,2014-04-01T09:42:00Z,30.0600,-84.2910,11.79,1111122 
COMPS,ioos:station:USF.COMPS:SHP:1,2014-04-01T09:48:00Z,30.0600,-84.2910,11.67,1111122 
COMPS,ioos:station:USF.COMPS:SHP:1,2014-04-01T09:54:00Z,30.0600,-84.2910,11.46,1111122 
COMPS,ioos:station:USF.COMPS:SHP:1,2014-04-01T10:00:00Z,30.0600,-84.2910,11.42,1111122 
COMPS,ioos:station:USF.COMPS:SHP:1,2014-04-01T10:06:00Z,30.0600,-84.2910,11.37,1111122 
COMPS,ioos:station:USF.COMPS:SHP:1,2014-04-01T10:12:00Z,30.0600,-84.2910,11.34,1111122 
COMPS,ioos:station:USF.COMPS:SHP:1,2014-04-01T10:18:00Z,30.0600,-84.2910,10.89,1111122 
COMPS,ioos:station:USF.COMPS:SHP:1,2014-04-01T10:24:00Z,30.0600,-84.2910,10.82,1111122 
COMPS,ioos:station:USF.COMPS:SHP:1,2014-04-01T10:30:00Z,30.0600,-84.2910,10.76,1111122 
COMPS,ioos:station:USF.COMPS:SHP:1,2014-04-01T10:36:00Z,30.0600,-84.2910,10.89,1111122 
COMPS,ioos:station:USF.COMPS:SHP:1,2014-04-01T10:42:00Z,30.0600,-84.2910,10.99,1111122 
COMPS,ioos:station:USF.COMPS:SHP:1,2014-04-01T10:48:00Z,30.0600,-84.2910,10.79,1111122 
COMPS,ioos:station:USF.COMPS:SHP:1,2014-04-01T10:54:00Z,30.0600,-84.2910,10.71,1111122 
COMPS,ioos:station:USF.COMPS:SHP:1,2014-04-01T11:00:00Z,30.0600,-84.2910,10.72,1111122 
COMPS,ioos:station:USF.COMPS:SHP:1,2014-04-01T11:06:00Z,30.0600,-84.2910,10.79,1111122 
COMPS,ioos:station:USF.COMPS:SHP:1,2014-04-01T11:12:00Z,30.0600,-84.2910,10.59,1111122 
COMPS,ioos:station:USF.COMPS:SHP:1,2014-04-01T11:18:00Z,30.0600,-84.2910,10.31,1111122 
COMPS,ioos:station:USF.COMPS:SHP:1,2014-04-01T11:24:00Z,30.0600,-84.2910,10.35,1111122 
COMPS,ioos:station:USF.COMPS:SHP:1,2014-04-01T11:30:00Z,30.0600,-84.2910,10.27,1111122 
COMPS,ioos:station:USF.COMPS:SHP:1,2014-04-01T11:36:00Z,30.0600,-84.2910,10.3,1111122 
COMPS,ioos:station:USF.COMPS:SHP:1,2014-04-01T11:42:00Z,30.0600,-84.2910,10.42,1111122 
COMPS,ioos:station:USF.COMPS:SHP:1,2014-04-01T11:48:00Z,30.0600,-84.2910,10.43,1111122 
COMPS,ioos:station:USF.COMPS:SHP:1,2014-04-01T11:54:00Z,30.0600,-84.2910,10.48,1111122 
COMPS,ioos:station:USF.COMPS:SHP:1,2014-04-01T12:00:00Z,30.0600,-84.2910,10.35,1111122 
COMPS,ioos:station:USF.COMPS:SHP:1,2014-04-01T12:06:00Z,30.0600,-84.2910,10.46,1111122 
COMPS,ioos:station:USF.COMPS:SHP:1,2014-04-01T12:12:00Z,30.0600,-84.2910,10.78,1111122 
COMPS,ioos:station:USF.COMPS:SHP:1,2014-04-01T12:18:00Z,30.0600,-84.2910,10.99,1111122 
COMPS,ioos:station:USF.COMPS:SHP:1,2014-04-01T12:24:00Z,30.0600,-84.2910,10.88,1111122 
COMPS,ioos:station:USF.COMPS:SHP:1,2014-04-01T12:30:00Z,30.0600,-84.2910,11.07,1111122 
COMPS,ioos:station:USF.COMPS:SHP:1,2014-04-01T12:36:00Z,30.0600,-84.2910,11.38,1111122 
COMPS,ioos:station:USF.COMPS:SHP:1,2014-04-01T12:42:00Z,30.0600,-84.2910,11.99,1111122 
COMPS,ioos:station:USF.COMPS:SHP:1,2014-04-01T12:48:00Z,30.0600,-84.2910,12.16,1111122 
COMPS,ioos:station:USF.COMPS:SHP:1,2014-04-01T12:54:00Z,30.0600,-84.2910,12.47,1111122 
COMPS,ioos:station:USF.COMPS:SHP:1,2014-04-01T13:00:00Z,30.0600,-84.2910,12.8,1111122 
COMPS,ioos:station:USF.COMPS:SHP:1,2014-04-01T13:06:00Z,30.0600,-84.2910,13.15,1111122 
COMPS,ioos:station:USF.COMPS:SHP:1,2014-04-01T13:12:00Z,30.0600,-84.2910,13.36,1111122 
COMPS,ioos:station:USF.COMPS:SHP:1,2014-04-01T13:18:00Z,30.0600,-84.2910,13.49,1111122 
COMPS,ioos:station:USF.COMPS:SHP:1,2014-04-01T13:24:00Z,30.0600,-84.2910,13.7,1111122 
COMPS,ioos:station:USF.COMPS:SHP:1,2014-04-01T13:30:00Z,30.0600,-84.2910,14.02,1111122 
COMPS,ioos:station:USF.COMPS:SHP:1,2014-04-01T13:36:00Z,30.0600,-84.2910,14.16,1111122 
COMPS,ioos:station:USF.COMPS:SHP:1,2014-04-01T13:42:00Z,30.0600,-84.2910,14.52,1111122 
COMPS,ioos:station:USF.COMPS:SHP:1,2014-04-01T13:48:00Z,30.0600,-84.2910,15.03,1111122 
COMPS,ioos:station:USF.COMPS:SHP:1,2014-04-01T13:54:00Z,30.0600,-84.2910,15.28,1111122 
COMPS,ioos:station:USF.COMPS:SHP:1,2014-04-01T14:00:00Z,30.0600,-84.2910,15.53,1111122 
COMPS,ioos:station:USF.COMPS:SHP:1,2014-04-01T14:06:00Z,30.0600,-84.2910,15.78,1111122 
COMPS,ioos:station:USF.COMPS:SHP:1,2014-04-01T14:12:00Z,30.0600,-84.2910,16.0,1111122 
COMPS,ioos:station:USF.COMPS:SHP:1,2014-04-01T14:18:00Z,30.0600,-84.2910,16.5,1111122 
COMPS,ioos:station:USF.COMPS:SHP:1,2014-04-01T14:24:00Z,30.0600,-84.2910,16.95,1111122 
COMPS,ioos:station:USF.COMPS:SHP:1,2014-04-01T14:30:00Z,30.0600,-84.2910,17.69,1111122 
COMPS,ioos:station:USF.COMPS:SHP:1,2014-04-01T14:36:00Z,30.0600,-84.2910,17.85,1111122 
COMPS,ioos:station:USF.COMPS:SHP:1,2014-04-01T14:42:00Z,30.0600,-84.2910,18.01,1111122 
COMPS,ioos:station:USF.COMPS:SHP:1,2014-04-01T14:48:00Z,30.0600,-84.2910,18.11,1111122 
COMPS,ioos:station:USF.COMPS:SHP:1,2014-04-01T14:54:00Z,30.0600,-84.2910,18.58,1111122 
COMPS,ioos:station:USF.COMPS:SHP:1,2014-04-01T15:00:00Z,30.0600,-84.2910,18.81,1111122 
COMPS,ioos:station:USF.COMPS:SHP:1,2014-04-01T15:06:00Z,30.0600,-84.2910,18.5,1111122 
COMPS,ioos:station:USF.COMPS:SHP:1,2014-04-01T15:12:00Z,30.0600,-84.2910,17.75,1111122 
COMPS,ioos:station:USF.COMPS:SHP:1,2014-04-01T15:18:00Z,30.0600,-84.2910,17.11,1111122 
COMPS,ioos:station:USF.COMPS:SHP:1,2014-04-01T15:24:00Z,30.0600,-84.2910,16.93,1111122 
COMPS,ioos:station:USF.COMPS:SHP:1,2014-04-01T15:30:00Z,30.0600,-84.2910,17.04,1111122 
COMPS,ioos:station:USF.COMPS:SHP:1,2014-04-01T15:36:00Z,30.0600,-84.2910,17.26,1111122 
COMPS,ioos:station:USF.COMPS:SHP:1,2014-04-01T15:42:00Z,30.0600,-84.2910,17.36,1111122 
COMPS,ioos:station:USF.COMPS:SHP:1,2014-04-01T15:48:00Z,30.0600,-84.2910,17.19,1111122 
COMPS,ioos:station:USF.COMPS:SHP:1,2014-04-01T15:54:00Z,30.0600,-84.2910,17.34,1111122 
COMPS,ioos:station:USF.COMPS:SHP:1,2014-04-01T16:00:00Z,30.0600,-84.2910,17.53,1111122 
COMPS,ioos:station:USF.COMPS:SHP:1,2014-04-01T16:06:00Z,30.0600,-84.2910,17.6,1111122 
COMPS,ioos:station:USF.COMPS:SHP:1,2014-04-01T16:12:00Z,30.0600,-84.2910,17.58,1111122 
COMPS,ioos:station:USF.COMPS:SHP:1,2014-04-01T16:18:00Z,30.0600,-84.2910,17.73,1111122 
COMPS,ioos:station:USF.COMPS:SHP:1,2014-04-01T16:24:00Z,30.0600,-84.2910,18.03,1111122 
COMPS,ioos:station:USF.COMPS:SHP:1,2014-04-01T16:30:00Z,30.0600,-84.2910,18.04,1111122 
COMPS,ioos:station:USF.COMPS:SHP:1,2014-04-01T16:36:00Z,30.0600,-84.2910,18.04,1111122 
COMPS,ioos:station:USF.COMPS:SHP:1,2014-04-01T16:42:00Z,30.0600,-84.2910,18.0,1111122 
COMPS,ioos:station:USF.COMPS:SHP:1,2014-04-01T16:48:00Z,30.0600,-84.2910,18.1,1111122 
COMPS,ioos:station:USF.COMPS:SHP:1,2014-04-01T16:54:00Z,30.0600,-84.2910,18.31,1111122 
COMPS,ioos:station:USF.COMPS:SHP:1,2014-04-01T17:00:00Z,30.0600,-84.2910,18.49,1111122 
COMPS,ioos:station:USF.COMPS:SHP:1,2014-04-01T17:06:00Z,30.0600,-84.2910,18.6,1111122 
COMPS,ioos:station:USF.COMPS:SHP:1,2014-04-01T17:12:00Z,30.0600,-84.2910,18.71,1111122 
COMPS,ioos:station:USF.COMPS:SHP:1,2014-04-01T17:18:00Z,30.0600,-84.2910,18.9,1111122 
COMPS,ioos:station:USF.COMPS:SHP:1,2014-04-01T17:24:00Z,30.0600,-84.2910,18.91,1111122 
COMPS,ioos:station:USF.COMPS:SHP:1,2014-04-01T17:30:00Z,30.0600,-84.2910,18.92,1111122 
COMPS,ioos:station:USF.COMPS:SHP:1,2014-04-01T17:36:00Z,30.0600,-84.2910,18.77,1111122 
COMPS,ioos:station:USF.COMPS:SHP:1,2014-04-01T17:42:00Z,30.0600,-84.2910,18.91,1111122 
COMPS,ioos:station:USF.COMPS:SHP:1,2014-04-01T17:48:00Z,30.0600,-84.2910,18.85,1111122 
COMPS,ioos:station:USF.COMPS:SHP:1,2014-04-01T17:54:00Z,30.0600,-84.2910,18.86,1111122 
COMPS,ioos:station:USF.COMPS:SHP:1,2014-04-01T18:00:00Z,30.0600,-84.2910,18.93,1111122 
COMPS,ioos:station:USF.COMPS:SHP:1,2014-04-01T18:06:00Z,30.0600,-84.2910,19.0,1111122 
COMPS,ioos:station:USF.COMPS:SHP:1,2014-04-01T18:12:00Z,30.0600,-84.2910,18.96,1111122 
COMPS,ioos:station:USF.COMPS:SHP:1,2014-04-01T18:18:00Z,30.0600,-84.2910,19.03,1111122 
COMPS,ioos:station:USF.COMPS:SHP:1,2014-04-01T18:24:00Z,30.0600,-84.2910,18.94,1111122 
COMPS,ioos:station:USF.COMPS:SHP:1,2014-04-01T18:30:00Z,30.0600,-84.2910,19.14,1111122 
COMPS,ioos:station:USF.COMPS:SHP:1,2014-04-01T18:36:00Z,30.0600,-84.2910,18.97,1111122 
COMPS,ioos:station:USF.COMPS:SHP:1,2014-04-01T18:42:00Z,30.0600,-84.2910,19.09,1111122 
COMPS,ioos:station:USF.COMPS:SHP:1,2014-04-01T18:48:00Z,30.0600,-84.2910,19.16,1111122 
COMPS,ioos:station:USF.COMPS:SHP:1,2014-04-01T18:54:00Z,30.0600,-84.2910,19.12,1111122 
COMPS,ioos:station:USF.COMPS:SHP:1,2014-04-01T19:00:00Z,30.0600,-84.2910,19.32,1111122 
COMPS,ioos:station:USF.COMPS:SHP:1,2014-04-01T19:06:00Z,30.0600,-84.2910,19.09,1111122 
COMPS,ioos:station:USF.COMPS:SHP:1,2014-04-01T19:12:00Z,30.0600,-84.2910,18.99,1111122 
COMPS,ioos:station:USF.COMPS:SHP:1,2014-04-01T19:18:00Z,30.0600,-84.2910,19.13,1111122 
COMPS,ioos:station:USF.COMPS:SHP:1,2014-04-01T19:24:00Z,30.0600,-84.2910,19.43,1111122 
COMPS,ioos:station:USF.COMPS:SHP:1,2014-04-01T19:30:00Z,30.0600,-84.2910,19.56,1111122 
COMPS,ioos:station:USF.COMPS:SHP:1,2014-04-01T19:36:00Z,30.0600,-84.2910,19.74,1111122 
COMPS,ioos:station:USF.COMPS:SHP:1,2014-04-01T19:42:00Z,30.0600,-84.2910,19.33,1111122 
COMPS,ioos:station:USF.COMPS:SHP:1,2014-04-01T19:48:00Z,30.0600,-84.2910,19.86,1111122 
COMPS,ioos:station:USF.COMPS:SHP:1,2014-04-01T19:54:00Z,30.0600,-84.2910,19.92,1111122 
COMPS,ioos:station:USF.COMPS:SHP:1,2014-04-01T20:00:00Z,30.0600,-84.2910,19.9,1111122 
COMPS,ioos:station:USF.COMPS:SHP:1,2014-04-01T20:06:00Z,30.0600,-84.2910,19.88,1111122 
COMPS,ioos:station:USF.COMPS:SHP:1,2014-04-01T20:12:00Z,30.0600,-84.2910,20.11,1111122 
COMPS,ioos:station:USF.COMPS:SHP:1,2014-04-01T20:18:00Z,30.0600,-84.2910,20.07,1111122 
COMPS,ioos:station:USF.COMPS:SHP:1,2014-04-01T20:24:00Z,30.0600,-84.2910,20.25,1111122 
COMPS,ioos:station:USF.COMPS:SHP:1,2014-04-01T20:30:00Z,30.0600,-84.2910,20.11,1111122 
COMPS,ioos:station:USF.COMPS:SHP:1,2014-04-01T20:36:00Z,30.0600,-84.2910,20.03,1111122 
COMPS,ioos:station:USF.COMPS:SHP:1,2014-04-01T20:42:00Z,30.0600,-84.2910,19.97,1111122 
COMPS,ioos:station:USF.COMPS:SHP:1,2014-04-01T20:48:00Z,30.0600,-84.2910,19.71,1111122 
COMPS,ioos:station:USF.COMPS:SHP:1,2014-04-01T20:54:00Z,30.0600,-84.2910,19.65,1111122 
COMPS,ioos:station:USF.COMPS:SHP:1,2014-04-01T21:00:00Z,30.0600,-84.2910,19.76,1111122 
COMPS,ioos:station:USF.COMPS:SHP:1,2014-04-01T21:06:00Z,30.0600,-84.2910,19.66,1111122 
COMPS,ioos:station:USF.COMPS:SHP:1,2014-04-01T21:12:00Z,30.0600,-84.2910,19.65,1111122 
COMPS,ioos:station:USF.COMPS:SHP:1,2014-04-01T21:18:00Z,30.0600,-84.2910,19.67,1111122 
COMPS,ioos:station:USF.COMPS:SHP:1,2014-04-01T21:24:00Z,30.0600,-84.2910,19.61,1111122 
COMPS,ioos:station:USF.COMPS:SHP:1,2014-04-01T21:30:00Z,30.0600,-84.2910,19.68,1111122 
COMPS,ioos:station:USF.COMPS:SHP:1,2014-04-01T21:36:00Z,30.0600,-84.2910,19.58,1111122 
COMPS,ioos:station:USF.COMPS:SHP:1,2014-04-01T21:42:00Z,30.0600,-84.2910,19.66,1111122 
COMPS,ioos:station:USF.COMPS:SHP:1,2014-04-01T21:48:00Z,30.0600,-84.2910,19.76,1111122 
COMPS,ioos:station:USF.COMPS:SHP:1,2014-04-01T21:54:00Z,30.0600,-84.2910,19.8,1111122 
COMPS,ioos:station:USF.COMPS:SHP:1,2014-04-01T22:00:00Z,30.0600,-84.2910,19.85,1111122 
COMPS,ioos:station:USF.COMPS:SHP:1,2014-04-01T22:06:00Z,30.0600,-84.2910,20.0,1111122 
COMPS,ioos:station:USF.COMPS:SHP:1,2014-04-01T22:12:00Z,30.0600,-84.2910,20.25,1111122 
COMPS,ioos:station:USF.COMPS:SHP:1,2014-04-01T22:18:00Z,30.0600,-84.2910,20.45,1111122 
COMPS,ioos:station:USF.COMPS:SHP:1,2014-04-01T22:24:00Z,30.0600,-84.2910,20.27,1111122 
COMPS,ioos:station:USF.COMPS:SHP:1,2014-04-01T22:30:00Z,30.0600,-84.2910,20.18,1111122 
COMPS,ioos:station:USF.COMPS:SHP:1,2014-04-01T22:36:00Z,30.0600,-84.2910,20.29,1111122 
COMPS,ioos:station:USF.COMPS:SHP:1,2014-04-01T22:42:00Z,30.0600,-84.2910,20.5,1111122 
COMPS,ioos:station:USF.COMPS:SHP:1,2014-04-01T22:48:00Z,30.0600,-84.2910,20.38,1111122 
COMPS,ioos:station:USF.COMPS:SHP:1,2014-04-01T22:54:00Z,30.0600,-84.2910,20.24,1111122 
COMPS,ioos:station:USF.COMPS:SHP:1,2014-04-01T23:00:00Z,30.0600,-84.2910,20.15,1111122 
COMPS,ioos:station:USF.COMPS:SHP:1,2014-04-01T23:06:00Z,30.0600,-84.2910,20.19,1111122 
COMPS,ioos:station:USF.COMPS:SHP:1,2014-04-01T23:12:00Z,30.0600,-84.2910,20.05,1111122 
COMPS,ioos:station:USF.COMPS:SHP:1,2014-04-01T23:18:00Z,30.0600,-84.2910,19.93,1111122 
COMPS,ioos:station:USF.COMPS:SHP:1,2014-04-01T23:24:00Z,30.0600,-84.2910,19.77,1111122 
COMPS,ioos:station:USF.COMPS:SHP:1,2014-04-01T23:30:00Z,30.0600,-84.2910,19.86,1111122 
COMPS,ioos:station:USF.COMPS:SHP:1,2014-04-01T23:36:00Z,30.0600,-84.2910,19.59,1111122 
COMPS,ioos:station:USF.COMPS:SHP:1,2014-04-01T23:42:00Z,30.0600,-84.2910,19.46,1111122 
COMPS,ioos:station:USF.COMPS:SHP:1,2014-04-01T23:48:00Z,30.0600,-84.2910,19.31,1111122 
COMPS,ioos:station:USF.COMPS:SHP:1,2014-04-01T23:54:00Z,30.0600,-84.2910,19.21,1111122 
COMPS,ioos:station:USF.COMPS:SHP:1,2014-04-02T00:00:00Z,30.0600,-84.2910,19.14,1111122 
COMPS,ioos:station:USF.COMPS:SHP:1,2014-04-02T00:06:00Z,30.0600,-84.2910,19.02,1111122 
COMPS,ioos:station:USF.COMPS:SHP:1,2014-04-02T00:12:00Z,30.0600,-84.2910,18.94,1111122 
COMPS,ioos:station:USF.COMPS:SHP:1,2014-04-02T00:18:00Z,30.0600,-84.2910,19.0,1111122 
COMPS,ioos:station:USF.COMPS:SHP:1,2014-04-02T00:24:00Z,30.0600,-84.2910,19.03,1111122 
COMPS,ioos:station:USF.COMPS:SHP:1,2014-04-02T00:30:00Z,30.0600,-84.2910,19.03,1111122 
COMPS,ioos:station:USF.COMPS:SHP:1,2014-04-02T00:36:00Z,30.0600,-84.2910,18.94,1111122 
COMPS,ioos:station:USF.COMPS:SHP:1,2014-04-02T00:42:00Z,30.0600,-84.2910,18.99,1111122 
COMPS,ioos:station:USF.COMPS:SHP:1,2014-04-02T00:48:00Z,30.0600,-84.2910,18.92,1111122 
COMPS,ioos:station:USF.COMPS:SHP:1,2014-04-02T00:54:00Z,30.0600,-84.2910,18.81,1111122 
COMPS,ioos:station:USF.COMPS:SHP:1,2014-04-02T01:00:00Z,30.0600,-84.2910,18.75,1111122 
COMPS,ioos:station:USF.COMPS:SHP:1,2014-04-02T01:06:00Z,30.0600,-84.2910,18.68,1111122 
COMPS,ioos:station:USF.COMPS:SHP:1,2014-04-02T01:12:00Z,30.0600,-84.2910,18.8,1111122 
COMPS,ioos:station:USF.COMPS:SHP:1,2014-04-02T01:18:00Z,30.0600,-84.2910,18.59,1111122 
COMPS,ioos:station:USF.COMPS:SHP:1,2014-04-02T01:24:00Z,30.0600,-84.2910,18.38,1111122 
COMPS,ioos:station:USF.COMPS:SHP:1,2014-04-02T01:30:00Z,30.0600,-84.2910,18.27,1111122 
COMPS,ioos:station:USF.COMPS:SHP:1,2014-04-02T01:36:00Z,30.0600,-84.2910,18.39,1111122 
COMPS,ioos:station:USF.COMPS:SHP:1,2014-04-02T01:42:00Z,30.0600,-84.2910,18.19,1111122 
COMPS,ioos:station:USF.COMPS:SHP:1,2014-04-02T01:48:00Z,30.0600,-84.2910,18.13,1111122 
COMPS,ioos:station:USF.COMPS:SHP:1,2014-04-02T01:54:00Z,30.0600,-84.2910,18.35,1111122 
COMPS,ioos:station:USF.COMPS:SHP:1,2014-04-02T02:00:00Z,30.0600,-84.2910,18.52,1111122 
COMPS,ioos:station:USF.COMPS:SHP:1,2014-04-02T02:06:00Z,30.0600,-84.2910,18.43,1111122 
COMPS,ioos:station:USF.COMPS:SHP:1,2014-04-02T02:12:00Z,30.0600,-84.2910,18.4,1111122 
COMPS,ioos:station:USF.COMPS:SHP:1,2014-04-02T02:18:00Z,30.0600,-84.2910,18.28,1111122 
COMPS,ioos:station:USF.COMPS:SHP:1,2014-04-02T02:24:00Z,30.0600,-84.2910,18.36,1111122 
COMPS,ioos:station:USF.COMPS:SHP:1,2014-04-02T02:30:00Z,30.0600,-84.2910,18.33,1111122 
COMPS,ioos:station:USF.COMPS:SHP:1,2014-04-02T02:36:00Z,30.0600,-84.2910,18.16,1111122 
COMPS,ioos:station:USF.COMPS:SHP:1,2014-04-02T02:42:00Z,30.0600,-84.2910,18.18,1111122 
COMPS,ioos:station:USF.COMPS:SHP:1,2014-04-02T02:48:00Z,30.0600,-84.2910,18.25,1111122 
COMPS,ioos:station:USF.COMPS:SHP:1,2014-04-02T02:54:00Z,30.0600,-84.2910,18.03,1111122 
COMPS,ioos:station:USF.COMPS:SHP:1,2014-04-02T03:00:00Z,30.0600,-84.2910,17.88,1111122 
COMPS,ioos:station:USF.COMPS:SHP:1,2014-04-02T03:06:00Z,30.0600,-84.2910,17.88,1111122 